This is the latest recevied weather packets stored in our database for station/object KG7FOQ-13. If no packets are shown the sender has not sent any weather packets the latest 10 day(s).
| Time | Temp. | Humidity | Pressure | Rain* | Wind** | Luminosity | Snow |
|---|---|---|---|---|---|---|---|
| 1777483501 | 13.33° C | 41% | 1020.4 hPa | 0 mm | - | - | - |
| 1777483201 | 13.89° C | 41% | 1020.5 hPa | 0 mm | - | - | - |
| 1777482900 | 13.33° C | 42% | 1020.5 hPa | 0 mm | - | - | - |
| 1777482600 | 12.78° C | 43% | 1020.5 hPa | 0 mm | - | - | - |
| 1777482299 | 12.78° C | 44% | 1020.7 hPa | 0 mm | - | - | - |
| 1777481999 | 12.78° C | 44% | 1020.5 hPa | 0 mm | - | - | - |
| 1777481697 | 12.78° C | 46% | 1020.7 hPa | 0 mm | - | - | - |
| 1777481397 | 12.22° C | 48% | 1020.7 hPa | 0 mm | - | - | - |
| 1777481096 | 11.67° C | 49% | 1020.7 hPa | 0 mm | - | - | - |
| 1777480796 | 11.67° C | 49% | 1020.7 hPa | 0 mm | - | - | - |
| 1777480495 | 11.67° C | 49% | 1020.8 hPa | 0 mm | - | - | - |
| 1777480195 | 11.11° C | 51% | 1020.8 hPa | 0 mm | - | - | - |
| 1777479894 | 11.11° C | 52% | 1020.8 hPa | 0 mm | - | - | - |
| 1777479594 | 10.56° C | 52% | 1020.8 hPa | 0 mm | - | - | - |
| 1777479293 | 10.56° C | 53% | 1020.9 hPa | 0 mm | - | - | - |
| 1777478993 | 10.56° C | 55% | 1020.8 hPa | 0 mm | - | - | - |
| 1777478692 | 10° C | 51% | 1020.8 hPa | 0 mm | - | - | - |
| 1777478394 | 10.56° C | 51% | 1020.9 hPa | 0 mm | - | - | - |
| 1777478091 | 10.56° C | 51% | 1020.8 hPa | 0 mm | - | - | - |
| 1777477790 | 10.56° C | 50% | 1020.8 hPa | 0 mm | - | - | - |
| 1777477189 | 9.44° C | 52% | 1020.8 hPa | 0 mm | - | - | - |
| 1777476889 | 8.89° C | 51% | 1020.7 hPa | 0 mm | - | - | - |
| 1777476588 | 8.89° C | 57% | 1020.7 hPa | 0 mm | - | - | - |
| 1777476288 | 8.33° C | 62% | 1020.8 hPa | 0 mm | - | - | - |
| 1777475987 | 7.78° C | 63% | 1020.8 hPa | 0 mm | - | - | - |
* Rain latest hour (hover to see other rain measurements)
** Current wind speed in m/s (hover to see current wind gust speed)